| time (UTC) | temp C | wind direction | speed KPH | gust KPH | rain 1hr cm | rain 24hr cm | rain mn cm | humidity % | barometer mb |
| 20260510193004 | 21 | 55 | 1.6 | 4.8 | 0.00 | 0.00 | 0.00 | 48 | 1015.2 |
| 20260510191504 | 21 | 34 | 0.0 | 4.8 | 0.00 | 0.00 | 0.00 | 46 | 1015.2 |
| 20260510190004 | 21 | 350 | 0.0 | 16.1 | 0.00 | 0.00 | 0.00 | 53 | 1015.1 |
| 20260510184504 | 21 | 8 | 0.0 | 12.9 | 0.00 | 0.00 | 0.00 | 50 | 1015.0 |
| 20260510183004 | 21 | 201 | 0.0 | 4.8 | 0.00 | 0.00 | 0.00 | 54 | 1015.0 |
| 20260510180004 | 21 | 93 | 1.6 | 9.7 | 0.00 | 0.00 | 0.00 | 49 | 1015.1 |
| 20260510174504 | 20 | 40 | 0.0 | 4.8 | 0.00 | 0.00 | 0.00 | 53 | 1015.0 |
| 20260510171504 | 20 | 45 | 0.0 | 3.2 | 0.00 | 0.00 | 0.00 | 53 | 1014.8 |
| 20260510163004 | 20 | 325 | 0.0 | 11.3 | 0.00 | 0.00 | 0.00 | 50 | 1015.1 |
| 20260510161504 | 19 | 44 | 1.6 | 8.0 | 0.00 | 0.00 | 0.00 | 46 | 1015.1 |
| 20260510160004 | 19 | 38 | 0.0 | 8.0 | 0.00 | 0.00 | 0.00 | 56 | 1015.0 |
| 20260510154504 | 18 | 37 | 0.0 | 8.0 | 0.00 | 0.00 | 0.00 | 58 | 1015.0 |
| 20260510151504 | 18 | 21 | 0.0 | 4.8 | 0.00 | 0.00 | 0.00 | 59 | 1014.8 |
| 20260510150004 | 17 | 358 | 1.6 | 8.0 | 0.00 | 0.00 | 0.00 | 59 | 1014.6 |
| 20260510144504 | 17 | 57 | 0.0 | 4.8 | 0.00 | 0.00 | 0.00 | 58 | 1014.5 |
| 20260510143004 | 16 | 11 | 0.0 | 4.8 | 0.00 | 0.00 | 0.00 | 61 | 1014.3 |
| 20260510141504 | 16 | 346 | 4.8 | 11.3 | 0.00 | 0.00 | 0.00 | 56 | 1014.1 |
| 20260510140012 | 16 | 52 | 0.0 | 3.2 | 0.00 | 0.00 | 0.00 | 62 | 1013.7 |
| 20260510134505 | 16 | 41 | 0.0 | 3.2 | 0.00 | 0.00 | 0.00 | 65 | 1013.5 |
| 20260510133004 | 15 | 0 | 1.6 | 8.0 | 0.00 | 0.00 | 0.00 | 69 | 1013.2 |
| 20260510131504 | 15 | 34 | 0.0 | 3.2 | 0.00 | 0.00 | 0.00 | 73 | 1012.9 |
| 20260510130004 | 14 | 22 | 0.0 | 8.0 | 0.00 | 0.00 | 0.00 | 72 | 1012.7 |
| 20260510124504 | 13 | 24 | 0.0 | 1.6 | 0.00 | 0.00 | 0.00 | 75 | 1012.6 |
| 20260510123004 | 13 | 330 | 0.0 | 1.6 | 0.00 | 0.00 | 0.00 | 78 | 1012.8 |
| 20260510121503 | 13 | 317 | 0.0 | 0.0 | 0.00 | 0.00 | 0.00 | 78 | 1012.3 |
| 20260510120004 | 13 | 317 | 0.0 | 0.0 | 0.00 | 0.00 | 0.00 | 79 | 1012.0 |
| 20260510114504 | 13 | 317 | 0.0 | 0.0 | 0.00 | 0.00 | 0.00 | 79 | 1012.0 |
| 20260510113004 | 13 | 317 | 0.0 | 0.0 | 0.00 | 0.00 | 0.00 | 79 | 1012.0 |
| 20260510111503 | 13 | 317 | 0.0 | 0.0 | 0.00 | 0.00 | 0.00 | 79 | 1011.8 |
| 20260510110004 | 13 | 317 | 0.0 | 0.0 | 0.00 | 0.03 | 0.00 | 81 | 1011.3 |
| 20260510104504 | 13 | 317 | 0.0 | 0.0 | 0.00 | 0.05 | 0.00 | 82 | 1011.1 |
| 20260510103004 | 12 | 316 | 0.0 | 0.0 | 0.00 | 0.10 | 0.00 | 85 | 1010.9 |
| 20260510101504 | 12 | 316 | 0.0 | 0.0 | 0.00 | 0.18 | 0.00 | 88 | 1010.8 |
| 20260510100004 | 12 | 316 | 0.0 | 0.0 | 0.00 | 0.20 | 0.00 | 89 | 1010.6 |
| 20260510094504 | 12 | 316 | 0.0 | 0.0 | 0.00 | 0.25 | 0.00 | 89 | 1010.2 |
| 20260510093003 | 12 | 316 | 0.0 | 0.0 | 0.00 | 0.28 | 0.00 | 89 | 1010.4 |
| 20260510091504 | 12 | 316 | 0.0 | 0.0 | 0.00 | 0.33 | 0.00 | 89 | 1010.1 |
| 20260510084503 | 12 | 316 | 0.0 | 0.0 | 0.00 | 0.43 | 0.00 | 89 | 1009.7 |
| 20260510081504 | 12 | 269 | 0.0 | 0.0 | 0.00 | 0.48 | 0.00 | 86 | 1009.1 |
| 20260510080004 | 12 | 269 | 0.0 | 0.0 | 0.00 | 0.53 | 0.00 | 86 | 1008.8 |
| 20260510074504 | 13 | 269 | 0.0 | 0.0 | 0.00 | 0.53 | 0.00 | 86 | 1008.5 |
| 20260510073004 | 13 | 269 | 0.0 | 0.0 | 0.00 | 0.53 | 0.00 | 86 | 1008.5 |
| 20260510071504 | 13 | 269 | 0.0 | 0.0 | 0.00 | 0.56 | 0.00 | 84 | 1008.7 |
| 20260510070004 | 14 | 269 | 0.0 | 0.0 | 0.00 | 0.58 | 0.00 | 84 | 1008.7 |
| 20260510064504 | 15 | 269 | 0.0 | 0.0 | 0.00 | 0.61 | 0.00 | 84 | 1008.7 |
| 20260510063004 | 14 | 269 | 0.0 | 0.0 | 0.00 | 0.64 | 0.00 | 84 | 1008.8 |
| 20260510054503 | 14 | 269 | 0.0 | 0.0 | 0.00 | 0.71 | 0.00 | 85 | 1008.7 |
| 20260510053004 | 14 | 269 | 0.0 | 0.0 | 0.00 | 0.76 | 0.00 | 85 | 1008.6 |
| 20260510051504 | 14 | 269 | 0.0 | 0.0 | 0.00 | 0.79 | 0.00 | 84 | 1008.7 |
| 20260510050005 | 14 | 269 | 0.0 | 0.0 | 0.00 | 0.81 | 0.00 | 84 | 1008.5 |
| 20260510044503 | 14 | 269 | 0.0 | 0.0 | 0.00 | 0.81 | 0.00 | 84 | 1008.5 |
| 20260510043003 | 14 | 269 | 0.0 | 0.0 | 0.00 | 0.81 | 0.00 | 84 | 1008.5 |
| 20260510040004 | 14 | 269 | 0.0 | 0.0 | 0.00 | 0.84 | 0.00 | 84 | 1008.1 |
| 20260510034503 | 14 | 269 | 0.0 | 0.0 | 0.00 | 0.84 | 0.84 | 83 | 1008.3 |
| 20260510033004 | 15 | 269 | 0.0 | 0.0 | 0.00 | 0.84 | 0.84 | 82 | 1008.4 |
| 20260510031504 | 15 | 269 | 0.0 | 0.0 | 0.00 | 0.84 | 0.84 | 82 | 1008.3 |
| 20260510024504 | 15 | 269 | 0.0 | 0.0 | 0.00 | 0.84 | 0.84 | 80 | 1008.1 |
| 20260510023003 | 15 | 269 | 0.0 | 0.0 | 0.00 | 0.84 | 0.84 | 80 | 1007.9 |
| 20260510021503 | 16 | 269 | 0.0 | 0.0 | 0.00 | 0.84 | 0.84 | 80 | 1007.8 |
| 20260510020004 | 16 | 269 | 0.0 | 0.0 | 0.00 | 0.84 | 0.84 | 80 | 1007.5 |
| 20260510014504 | 16 | 269 | 0.0 | 0.0 | 0.00 | 0.84 | 0.84 | 78 | 1007.3 |
| 20260510013004 | 17 | 269 | 0.0 | 0.0 | 0.00 | 0.84 | 0.84 | 75 | 1007.1 |
| 20260510010004 | 18 | 269 | 0.0 | 0.0 | 0.00 | 0.86 | 0.84 | 71 | 1006.8 |
| 20260510004504 | 19 | 269 | 0.0 | 0.0 | 0.00 | 0.86 | 0.84 | 70 | 1006.4 |
| 20260510003004 | 20 | 269 | 0.0 | 0.0 | 0.00 | 0.86 | 0.84 | 67 | 1006.2 |
| 20260510001504 | 20 | 269 | 0.0 | 0.0 | 0.00 | 0.86 | 0.84 | 63 | 1006.0 |
| 20260510000003 | 21 | 269 | 0.0 | 1.6 | 0.00 | 0.86 | 0.84 | 60 | 1005.9 |
| 20260509234504 | 21 | 242 | 0.0 | 4.8 | 0.00 | 0.86 | 0.84 | 60 | 1005.8 |
| 20260509233004 | 21 | 219 | 0.0 | 3.2 | 0.00 | 0.86 | 0.84 | 62 | 1005.6 |
| 20260509231504 | 21 | 259 | 0.0 | 3.2 | 0.00 | 0.86 | 0.84 | 59 | 1005.5 |
| 20260509230004 | 22 | 240 | 0.0 | 4.8 | 0.00 | 0.86 | 0.84 | 57 | 1005.5 |
| 20260509224504 | 22 | 244 | 0.0 | 4.8 | 0.00 | 0.86 | 0.84 | 56 | 1005.4 |
| 20260509221504 | 22 | 259 | 0.0 | 8.0 | 0.00 | 0.86 | 0.84 | 55 | 1005.4 |
| 20260509220004 | 22 | 242 | 1.6 | 8.0 | 0.00 | 0.86 | 0.84 | 55 | 1005.4 |
| 20260509214504 | 22 | 243 | 0.0 | 4.8 | 0.00 | 0.86 | 0.84 | 56 | 1005.4 |
| 20260509213004 | 22 | 231 | 0.0 | 4.8 | 0.00 | 0.86 | 0.84 | 57 | 1005.5 |
| 20260509203003 | 22 | 256 | 0.0 | 8.0 | 0.00 | 0.86 | 0.84 | 62 | 1005.9 |
| 20260509201504 | 22 | 262 | 1.6 | 8.0 | 0.00 | 0.86 | 0.84 | 61 | 1006.0 |
| 20260509200004 | 22 | 217 | 1.6 | 8.0 | 0.00 | 0.86 | 0.84 | 62 | 1006.0 |
| 20260509194504 | 22 | 261 | 1.6 | 4.8 | 0.00 | 0.86 | 0.84 | 63 | 1006.2 |